SCP
0 0 0 0 0 0 0 0 0 0 0 0 0 0 0 0 0 0 0 0 0 0 0 0 0 0 0 0 0 0 0 0 0 0 0 0 0 0
0 0 0 0 0 0 0 0 0 0 0 0 0 0 0 0 0 0 0 0 0 0 0 0 0 0 0 0 0 0 0 0 0 0 0 0 0 0
0 0 0 0 0 0 0 0 0 0 0 0 0 0 0 0 0 0 0 0 0 0 0 0 0 0 0 0 0 0 0 0 0 0 0 0 0 0
0 0 0 0 0 0 0 0 0 0 0 0 0 0 0 0 0 0 0 0 0 0 0 0 0 0 0 0 0 0 0 0 0 0 0 0 0 0
0 0 0 0 0 0 0 0 0 0 0 0 0 0 0 0 0 0 0 0 0 0 0 0 0 0 0 0 0 0 0 0 0 0 0 0 0 0
0 0 0 0 0 0 0 0 0 0 0 0 0 0 0 0 0 0 0 0 0 0 0 0 0 0 0 0 0 0 0 0 0 0 0 0 0 0
0 0 0 0 0 0 0 0 0 0 0 0 0 0 0 0 0 0 0 0 0 0 0 0 0 0 0 0 0 0 0 0 0 0 0 0 0 0
0 0 0 0 0 0 0 0 0 0 0 0 0 0 0 0 0 0 0 0 0 0 0 0 0 0 0 0 0 0 0 0 0 0 0 0 0 0
0 0 0 0 0 0 0 0 0 0 0 0 0 0 0 0 0 0 0 0 0 0 0 0 0 0 0 0 0 0 0 0 0 0 0 0 0 0
0 0 0 0 0 0 0 0 0 0 0 0 0 0 0 0 0 0 0 0 0 0 0 0 0 0 0 0 0 0 0 0 0 0 0 0 0 0
0 0 0 0 0 0 0 0 0 0 0 0 0 0 0 0 0 0 0 0 0 0 0 0 0 -0 -0 0 0 0 0 0 0 0 0 0 0 0
0 0 0 0 0 0 0 0 0 0 0 0 0 0 0 0 0 0 0 0 -0 0 0 0 0 -0 0 0 0 0 0 0 0 0 0 0 0 0
0 0 0 0 0 0 0 0 0 0 0 0 0 0 0 0 0 0 0 0 -0 -0 0 0 0 0 0 0 0 0 0 0 0 0 0 0 0 0
0 0 0 0 0 0 0 0 0 0 0 0 0 0 0 0 0 0 0 0 0 0 0 0 0 0 0 0 0 0 0 0 0 0 0 0 0 0
0 0 0 0 0 0 0 0 0 0 0 0 0 0 0 0 0 0 0 0 0 0 0 0 0 0 0 0 0 0 0 0 0 0 0 0 0 0
0 0 0 0 0 0 0 0 0 0 0 0 0 0 0 0 0 0 0 0 0 0 0 0 0 0 0 0 0 0 0 0 0 0 0 0 0 0
0 0 0 0 0 0 0 0 0 0 0 0 0 0 0 0 0 0 0 0 0 0 0 0 0 -0 0 0 0 0 0 0 0 0 0 0 0 0
0 0 0 0 0 0 0 0 0 0 0 0 0 0 0 0 0 0 0 0 0 0 0 0 0 0 0 0 0 0 0 0 0 0 0 0 0 0
0 0 0 0 0 0 0 0 0 0 0 0 0 0 0 0 0 0 0 0 0 0 0 0 0 0 0 0 0 0 0 0 0 0 0 0 0 0
0 0 0 0 0 0 0 0 0 0 0 0 0 0 0 0 0 0 0 0 0 0 0 0 0 0 0 0 0 0 0 0 0 0 0 0 0 0
0 0 0 0 0 0 0 0 0 0 0 0 0 0 0 0 0 0 0 0 0 -0 -0 -0 0 0 0 0 0 0 0 0 0 0 0 0 0 0
0 0 0 0 0 0 0 0 0 0 0 0 0 0 0 0 0 0 0 0 0 0 0 0 0 0 0 0 0 0 0 0 0 0 0 0 0 0
0 0 0 0 0 0 0 0 0 0 0 0 0 0 0 0 0 0 0 0 0 0 0 0 0 0 0 0 0 0 0 0 0 0 0 0 0 0
Wind_Speed
7 7 7 6 6 6 6 6 11 18 17 11 6 7 6 7 14 11 11 24 32 34 34 34 34 34 34 34 34 34 34 34 34 34 34 33 32 31
7 8 8 7 6 6 6 6 7 11 18 14 10 8 10 13 20 13 12 30 31 32 33 33 34 34 34 35 35 35 34 34 35 35 34 34 32 30
9 11 11 10 8 6 6 6 6 8 14 15 12 11 12 12 13 10 12 11 13 27 32 34 34 34 34 34 34 35 34 34 34 34 34 33 31 30
11 12 13 12 11 8 7 7 7 7 11 17 15 12 14 13 14 13 14 14 10 24 31 33 34 34 34 34 34 34 34 34 34 33 32 31 30 29
12 13 14 13 13 9 8 8 7 10 10 14 16 13 12 13 15 15 14 10 13 18 26 29 31 33 34 35 34 34 33 32 32 31 30 29 28 28
11 13 14 14 13 11 11 9 10 11 11 13 14 14 13 12 12 13 13 7 9 13 19 23 28 32 33 34 33 33 32 32 31 30 28 27 26 27
11 13 14 19 23 19 16 12 12 12 12 13 14 15 14 13 13 12 14 12 10 9 12 14 14 13 15 23 29 31 32 31 30 29 28 27 26 26
13 13 14 16 19 25 28 28 25 18 16 15 15 16 18 16 14 14 14 16 17 6 10 14 12 14 13 12 23 31 30 30 29 29 28 27 27 27
12 13 14 15 21 13 20 25 21 26 27 19 18 17 18 17 17 18 17 18 18 12 12 17 11 13 12 15 27 30 30 30 30 29 29 29 28 28
11 13 14 13 16 21 17 16 15 15 19 16 13 15 17 16 17 19 19 18 15 11 12 16 12 12 14 12 23 30 31 31 29 28 27 28 28 27
11 13 16 15 24 30 21 18 18 14 20 26 29 28 32 32 26 16 15 15 16 11 7 13 14 14 13 13 17 26 27 26 28 29 29 28 26 24
11 12 19 23 28 31 21 18 17 14 14 16 17 19 17 19 25 17 13 15 16 14 8 10 13 13 12 8 8 8 12 21 27 28 28 27 25 15
12 12 12 27 31 33 28 14 20 23 14 13 13 12 12 11 11 11 12 13 16 16 12 11 13 12 12 11 8 8 9 10 12 16 21 24 23 18
14 12 15 30 33 31 22 23 30 24 11 12 13 12 12 11 12 13 15 15 15 18 17 15 13 12 12 13 10 5 6 9 10 11 10 14 16 19
13 23 29 31 27 17 21 28 23 12 12 13 13 12 11 12 13 13 14 13 15 14 13 13 12 10 8 9 8 8 10 9 8 8 8 5 3 4
13 18 24 23 19 20 19 15 11 11 14 12 13 12 11 11 12 12 13 12 11 10 8 7 7 8 7 6 8 10 9 8 9 9 6 3 4 4
18 10 8 10 10 11 11 10 10 12 12 12 13 13 13 12 12 11 10 11 10 10 8 5 6 7 7 5 5 7 9 8 7 6 3 7 9 8
18 10 11 11 12 13 13 13 13 12 12 13 12 12 13 13 13 12 10 10 10 10 8 7 7 7 4 2 4 7 7 5 4 5 6 10 11 10
12 10 11 11 12 12 12 13 13 13 12 12 12 12 12 12 12 12 11 10 10 9 8 6 5 6 6 6 7 10 6 4 5 8 9 10 11 10
9 10 11 12 12 12 12 13 13 13 12 12 12 12 12 12 12 11 10 10 10 9 7 6 5 4 3 4 5 7 13 7 6 9 10 11 13 19
11 11 11 11 12 12 12 12 13 13 13 13 12 12 11 11 11 10 10 14 11 7 8 7 6 10 4 3 3 7 12 19 16 9 7 9 11 12
11 12 12 12 12 12 12 12 12 12 13 12 12 11 11 10 11 11 10 9 8 7 6 5 6 6 5 6 7 9 10 12 18 25 22 15 6 7
12 12 12 12 12 11 11 12 14 13 12 12 12 11 11 10 9 9 8 8 7 6 4 4 4 4 5 6 7 9 13 12 11 12 14 23 27 27
Wind_Direction
296 292 288 282 279 279 284 291 298 303 301 301 294 290 291 296 298 302 301 305 303 300 299 298 298 297 296 295 293 291 290 290 289 287 285 283 281 279
299 295 293 290 284 281 278 278 278 289 296 300 300 300 301 301 301 300 296 298 298 299 298 297 296 295 294 293 291 290 288 287 286 283 282 280 278 277
308 306 300 298 293 287 284 281 279 283 291 299 300 301 298 297 296 283 285 283 288 296 298 297 295 292 291 291 290 289 288 287 285 282 279 277 276 276
313 307 304 304 299 294 288 284 287 288 291 296 298 299 296 295 293 288 292 291 292 297 298 297 297 297 296 294 293 292 290 288 284 282 280 276 275 276
307 306 306 303 299 294 292 292 291 294 289 290 293 295 294 293 293 291 286 284 291 297 299 298 297 296 295 293 292 292 292 292 289 284 280 276 274 274
304 303 301 298 297 297 297 288 291 293 291 290 292 295 294 293 291 294 295 283 287 296 293 291 292 294 293 293 293 293 293 291 288 286 283 280 277 274
302 299 297 300 303 304 303 302 301 298 298 297 297 299 299 301 300 299 298 298 286 285 286 285 287 284 286 288 289 287 285 285 286 286 284 282 280 276
304 302 300 300 302 308 309 306 304 305 305 302 301 299 301 301 301 299 299 299 296 278 275 286 285 283 282 279 283 286 287 290 290 290 287 283 280 277
301 304 307 307 311 302 300 305 307 305 304 300 298 298 299 300 299 296 292 291 292 298 294 289 284 283 285 288 293 294 295 293 291 290 287 282 277 272
298 301 302 304 304 305 304 308 304 300 297 298 292 293 297 297 293 295 297 296 290 285 283 287 291 288 291 288 292 291 291 290 290 289 290 284 275 267
300 304 306 304 304 310 313 308 304 302 305 304 304 303 304 305 305 303 300 297 295 291 276 284 291 291 287 284 282 284 286 291 293 290 287 281 273 264
306 304 307 309 310 313 313 309 310 307 306 307 306 303 300 296 300 298 296 295 296 296 282 281 289 293 291 266 259 274 285 288 289 287 284 280 271 260
314 312 308 311 313 314 317 314 310 315 317 312 305 300 298 296 295 292 290 290 291 290 290 286 287 286 283 287 278 269 271 279 286 284 281 276 267 253
313 310 308 312 316 320 323 317 319 324 317 309 304 304 305 304 301 298 293 288 281 282 285 285 283 284 285 288 295 289 285 283 283 280 275 270 259 241
309 310 314 318 324 325 319 321 324 318 310 308 308 308 304 299 300 300 298 292 287 284 282 282 284 288 285 291 299 301 306 297 289 290 291 282 245 201
308 310 318 322 323 321 320 318 313 309 313 310 309 306 304 303 305 306 306 308 306 304 298 299 305 300 292 289 294 300 303 299 306 308 310 359 58 86
321 320 319 320 319 316 315 314 314 316 315 312 311 311 311 310 309 310 308 312 314 316 320 316 312 296 269 270 301 307 309 305 303 315 3 59 58 64
332 327 321 318 317 318 318 318 318 317 316 314 312 310 311 312 312 313 314 318 322 324 327 330 334 332 320 254 306 318 319 319 343 17 46 71 68 62
330 318 316 317 316 316 315 315 315 315 314 312 310 310 310 311 312 314 319 323 324 325 329 334 343 349 358 354 330 340 342 356 46 59 60 67 72 70
319 316 316 315 315 315 315 314 314 314 313 312 310 310 311 311 312 316 320 323 325 327 330 337 341 343 335 314 317 348 21 31 59 76 76 76 78 81
319 317 315 314 314 313 312 312 312 312 311 311 310 311 312 313 315 319 321 325 330 328 338 344 335 342 329 326 24 43 42 49 54 59 68 87 89 87
318 316 314 312 312 311 311 311 311 311 311 310 310 311 313 315 318 320 322 326 328 330 335 340 348 3 18 39 54 55 55 54 55 57 55 58 80 91
316 314 312 311 310 310 310 310 310 309 309 308 309 311 314 317 319 319 321 324 327 333 346 1 9 21 30 39 58 64 63 61 61 65 68 75 83 90